| time (UTC) | temp C | wind direction | speed KPH | gust KPH | rain 1hr cm | rain 24hr cm | rain mn cm | humidity % | barometer mb |
| 20260505081512 | 15 | 203 | 4.8 | 17.7 | 0.00 | 0.00 | 0.00 | 76 | 1011.2 |
| 20260505080025 | 15 | 288 | 6.4 | 16.1 | 0.00 | 0.00 | 0.00 | 76 | 1011.1 |
| 20260505074506 | 14 | 233 | 9.7 | 19.3 | 0.00 | 0.00 | 0.00 | 76 | 1011.1 |
| 20260505073004 | 14 | 239 | 4.8 | 12.9 | 0.00 | 0.00 | 0.00 | 76 | 1011.0 |
| 20260505071503 | 14 | 214 | 4.8 | 9.7 | 0.00 | 0.00 | 0.00 | 76 | 1010.8 |
| 20260505070019 | 13 | 198 | 4.8 | 9.7 | 0.00 | 0.00 | 0.00 | 77 | 1010.8 |
| 20260505064520 | 13 | 162 | 0.0 | 6.4 | 0.00 | 0.00 | 0.00 | 78 | 1011.0 |
| 20260505063016 | 13 | 198 | 0.0 | 3.2 | 0.00 | 0.00 | 0.00 | 77 | 1011.1 |
| 20260505061512 | 13 | 151 | 1.6 | 4.8 | 0.00 | 0.00 | 0.00 | 77 | 1011.1 |
| 20260505060009 | 13 | 155 | 1.6 | 6.4 | 0.00 | 0.00 | 0.00 | 75 | 1011.1 |
| 20260505054504 | 14 | 140 | 3.2 | 9.7 | 0.00 | 0.00 | 0.00 | 73 | 1011.3 |
| 20260505053004 | 15 | 221 | 4.8 | 12.9 | 0.00 | 0.00 | 0.00 | 71 | 1011.2 |
| 20260505051524 | 15 | 210 | 3.2 | 12.9 | 0.00 | 0.00 | 0.00 | 71 | 1011.2 |
| 20260505041513 | 15 | 183 | 4.8 | 16.1 | 0.00 | 0.00 | 0.00 | 67 | 1011.6 |
| 20260505040010 | 15 | 168 | 4.8 | 14.5 | 0.00 | 0.00 | 0.00 | 66 | 1011.6 |
| 20260505034506 | 15 | 195 | 4.8 | 14.5 | 0.00 | 0.00 | 0.00 | 66 | 1011.6 |
| 20260505033034 | 15 | 217 | 4.8 | 12.9 | 0.00 | 0.00 | 0.00 | 66 | 1011.7 |
| 20260505031523 | 15 | 196 | 6.4 | 11.3 | 0.00 | 0.00 | 0.00 | 66 | 1011.9 |
| 20260505030022 | 15 | 231 | 6.4 | 12.9 | 0.00 | 0.00 | 0.00 | 65 | 1011.9 |
| 20260505024527 | 15 | 207 | 4.8 | 14.5 | 0.00 | 0.00 | 0.00 | 65 | 1011.9 |
| 20260505023020 | 15 | 170 | 3.2 | 11.3 | 0.00 | 0.00 | 0.00 | 65 | 1012.1 |
| 20260505021514 | 15 | 195 | 3.2 | 11.3 | 0.00 | 0.00 | 0.00 | 65 | 1012.1 |
| 20260505020025 | 15 | 200 | 6.4 | 11.3 | 0.00 | 0.00 | 0.00 | 63 | 1012.2 |
| 20260505014534 | 15 | 213 | 3.2 | 9.7 | 0.00 | 0.00 | 0.00 | 62 | 1012.1 |
| 20260505013004 | 15 | 199 | 1.6 | 16.1 | 0.00 | 0.00 | 0.00 | 59 | 1011.9 |
| 20260505011523 | 16 | 214 | 4.8 | 14.5 | 0.00 | 0.00 | 0.00 | 57 | 1011.8 |
| 20260505010022 | 16 | 195 | 4.8 | 14.5 | 0.00 | 0.00 | 0.00 | 54 | 1011.6 |
| 20260505004521 | 16 | 207 | 8.0 | 16.1 | 0.00 | 0.00 | 0.00 | 52 | 1011.4 |
| 20260505003016 | 17 | 186 | 3.2 | 16.1 | 0.00 | 0.00 | 0.00 | 51 | 1011.3 |
| 20260505001510 | 17 | 139 | 4.8 | 16.1 | 0.00 | 0.00 | 0.00 | 50 | 1011.0 |
| 20260505000013 | 18 | 146 | 4.8 | 17.7 | 0.00 | 0.00 | 0.00 | 48 | 1010.6 |
| 20260504234505 | 18 | 182 | 9.7 | 20.9 | 0.00 | 0.00 | 0.00 | 47 | 1010.4 |
| 20260504233028 | 19 | 114 | 9.7 | 16.1 | 0.00 | 0.00 | 0.00 | 46 | 1010.2 |
| 20260504231523 | 20 | 200 | 8.0 | 19.3 | 0.00 | 0.00 | 0.00 | 45 | 1010.1 |
| 20260504230024 | 20 | 248 | 4.8 | 19.3 | 0.00 | 0.00 | 0.00 | 44 | 1010.0 |
| 20260504224533 | 21 | 207 | 6.4 | 20.9 | 0.00 | 0.00 | 0.00 | 39 | 1010.0 |
| 20260504223002 | 22 | 136 | 3.2 | 16.1 | 0.00 | 0.00 | 0.00 | 31 | 1009.7 |
| 20260504221503 | 22 | 262 | 6.4 | 17.7 | 0.00 | 0.00 | 0.00 | 30 | 1009.8 |
| 20260504220002 | 22 | 281 | 3.2 | 19.3 | 0.00 | 0.00 | 0.00 | 31 | 1009.9 |
| 20260504214501 | 22 | 229 | 8.0 | 24.1 | 0.00 | 0.00 | 0.00 | 31 | 1009.9 |
| 20260504213001 | 22 | 267 | 11.3 | 25.7 | 0.00 | 0.00 | 0.00 | 29 | 1010.0 |
| 20260504211506 | 22 | 264 | 9.7 | 29.0 | 0.00 | 0.00 | 0.00 | 31 | 1010.0 |
| 20260504210001 | 22 | 207 | 6.4 | 35.4 | 0.00 | 0.00 | 0.00 | 30 | 1009.9 |
| 20260504204502 | 22 | 253 | 9.7 | 16.1 | 0.00 | 0.00 | 0.00 | 30 | 1010.0 |
| 20260504203002 | 22 | 278 | 6.4 | 17.7 | 0.00 | 0.00 | 0.00 | 31 | 1009.8 |
| 20260504201503 | 22 | 210 | 8.0 | 16.1 | 0.00 | 0.00 | 0.00 | 31 | 1010.0 |
| 20260504200002 | 22 | 155 | 4.8 | 20.9 | 0.00 | 0.00 | 0.00 | 31 | 1010.0 |
| 20260504194502 | 22 | 282 | 8.0 | 20.9 | 0.00 | 0.00 | 0.00 | 31 | 1010.2 |
| 20260504193002 | 22 | 193 | 9.7 | 22.5 | 0.00 | 0.00 | 0.00 | 30 | 1010.5 |
| 20260504191502 | 21 | 201 | 8.0 | 27.4 | 0.00 | 0.00 | 0.00 | 31 | 1010.8 |
| 20260504190002 | 21 | 202 | 12.9 | 25.7 | 0.00 | 0.00 | 0.00 | 31 | 1011.2 |
| 20260504184503 | 21 | 250 | 8.0 | 16.1 | 0.00 | 0.00 | 0.00 | 34 | 1011.3 |
| 20260504183007 | 21 | 238 | 9.7 | 20.9 | 0.00 | 0.00 | 0.00 | 34 | 1011.6 |
| 20260504181503 | 21 | 199 | 6.4 | 25.7 | 0.00 | 0.00 | 0.00 | 34 | 1011.8 |
| 20260504180003 | 21 | 224 | 4.8 | 20.9 | 0.00 | 0.00 | 0.00 | 35 | 1011.8 |
| 20260504174507 | 21 | 266 | 6.4 | 22.5 | 0.00 | 0.00 | 0.00 | 35 | 1012.1 |
| 20260504173003 | 20 | 266 | 9.7 | 24.1 | 0.00 | 0.00 | 0.00 | 33 | 1012.3 |
| 20260504171502 | 20 | 306 | 8.0 | 24.1 | 0.00 | 0.00 | 0.00 | 35 | 1012.5 |